User: anonymous   Login
Location: Unspecified
(0.0000°N, 0.0000°E)
Time: 05:43:22
(UTC+01:00)
Language:

ARIANE 5 R/B - Orbit

View from above orbital plane
View from above orbital plane
View from above satellite
View from above satellite

Ground track
Ground track

The orbit data is extracted from the following two-line orbital elements,

1 27510U 02040C   16039.85583442 -.00000147 +00000-0 +12626-3 0  9992
2 27510 005.3264 039.8787 7161038 317.8056 238.7640 02.27193637111648
Epoch (UTC): 08 February 2016 20:32:24
Eccentricity: 0.7161038
inclination: 5.3264°
perigee height: 561 km
apogee height: 35566 km
right ascension of ascending node: 39.8787°
argument of perigee: 317.8056°
revolutions per day: 2.27193637
mean anomaly at epoch: 238.7640°
orbit number at epoch: 11164

The dashed part of the orbit path shows where the satellite is in the earth's shadow,  

DLR